Starlink 35114

operational
NORAD ID: 65502 Int'l Des: 2025-198 Owner: SPXS Country: US Constellation: starlink
LEOCIRCULAR

Starlink 35114について

説明を読み込み中...

リアルタイム位置

3D地球を読み込み中...

次回通過

高度履歴

Altitude vs Time

uPlot chart will show altitude changes over time

軌道要素

1 65502U 25198L 26062.03764124 .00022542 00000-0 77068-3 0 9992
2 65502 53.1592 301.7554 0001113 80.4167 279.6959 15.30209340 27601
Epoch: Mar 3, 2026 • Age: 9 hours

現在のステータス

高度 480.7 km
速度 7.63 km/s
衛星直下点 52.24°N, 76.78°E
打ち上げ日 Sep 5, 2025
運用期間 0.4 years
タイプ internet

技術仕様

分類 Payload
質量 575.00 kg
乾燥質量 530.00 kg
総質量 575.00 kg
長さ 0.30 m
直径 4.10 m
スパン 29.00 m
形状 Box + pan
製造者 SPXS
バスタイプ Starlink V2MO
フェーズステータス In Orbit
所有者/国 SPXS/US

大規模コンステレーション

Loading constellations...